Regional Weather Roundup
Issued by NWS Charleston, SC

Current Version | Previous Version | Text Only | Print | Product List | Glossary On
Versions: 1 2 3 4 5 6 7 8 9 10 11 12 13 14 15 16 17 18 19 20 21 22 23 24 25 26 27 28 29 30 31 32 33 34 35 36 37 38 39 40 41 42 43 44 45 46 47 48 49 50
000 ASUS42 KCHS 130927 RWRCHS REGIONAL WEATHER ROUNDUP NATIONAL WEATHER SERVICE CHARLESTON SC 400 AM EST WED DEC 13 2017 NOTE: "FAIR" INDICATES FEW OR NO CLOUDS BELOW 12,000 FEET WITH NO SIGNIFICANT WEATHER AND/OR OBSTRUCTIONS TO VISIBILITY. NOT ALL STATIONS ARE QUALITY CONTROLLED. USE DATA WITH CAUTION... ESPECIALLY DEWPOINT OBSERVATIONS. SCZ027-030-031-034>040-042>050-131000- ...SOUTHEAST SOUTH CAROLINA... CITY SKY/WX TMP DP RH WIND PRES REMARKS N CHARLESTON CLEAR 37 26 64 NW7 29.95R WCI 32 WATERFRONT PRK N/A 41 29 62 NW6 29.80R JOHNS ISLAND FAIR 39 23 52 NW8 29.96R WCI 34 PINOPOLIS N/A 43 28 56 NW18 29.86R MONCKS CORNER FAIR 34 23 64 CALM 29.95S SUMMERVILLE FAIR 36 25 64 W3 29.96S BEAUFORT MCAS CLEAR 40 26 57 NW9 29.97R WCI 34 BEAUFORT ARPT FAIR 39 28 65 NW7 29.98R WCI 34 HILTON HEAD IS CLEAR 41 25 52 NW9G17 29.98R WALTERBORO SUNNY 36 21 55 NW9 29.97R WCI 29 ALLENDALE FAIR 36 23 60 VRB3 29.97R ...SOUTHERN MIDLANDS AND PEE DEE... CITY SKY/WX TMP DP RH WIND PRES REMARKS GEORGETOWN FAIR 34 19 55 CALM 29.95R KINGSTREE FAIR 30 21 69 CALM 29.95R ORANGEBURG CLEAR 35 20 54 NW6 29.95R WCI 30 BARNWELL N/A 36 23 60 NW3 29.97R AIKEN FAIR 30 18 59 W6 29.99R WCI 24 MANNING FAIR 30 23 74 MISG 29.96R COLUMBIA CLEAR 33 22 63 W8 29.95R WCI 26 SUMTER CLEAR 34 13 42 NW8 29.93R WCI 27 FLORENCE CLEAR 27 21 78 NW3 29.95R MYRTLE BEACH CLEAR 35 19 52 N8 29.94R WCI 29 N MYRTLE BEACH CLEAR 34 18 52 NW6 29.92R WCI 29 $$ GAZ063-065-086>088-099>101-113>116-118-119-134>141-150-131000- ...SOUTHEAST GEORGIA... CITY SKY/WX TMP DP RH WIND PRES REMARKS SAVANNAH ARPT CLEAR 38 30 73 W6 29.99R WCI 33 HUNTER AAF CLEAR 40 28 64 W12 29.96R WCI 32 FORT STEWART CLEAR 40 26 56 NW7 29.97R WCI 36 STATESBORO CLEAR 37 22 54 NW8 30.00R WCI 31 SYLVANIA SUNNY 37 25 62 NW8 29.99R WCI 31 CLAXTON FAIR 40 27 60 W9 30.01R WCI 34 ...CSRA...CENTRAL AND FAR SOUTHEAST GEORGIA... CITY SKY/WX TMP DP RH WIND PRES REMARKS THOMSON CLEAR 33 12 42 N10 30.04R WCI 25 AUGUSTA-BUSH CLEAR 37 17 44 NW12 29.98R WCI 29 AUGUSTA-DANIEL CLEAR 36 17 46 W9 29.97R WCI 29 SWAINSBORO FAIR 36 25 64 NW7 30.01S WCI 30 VIDALIA CLEAR 37 28 70 NW8 30.02R WCI 31 EASTMAN FAIR 38 14 37 NW5 30.07R WCI 34 HAZLEHURST FAIR 40 18 42 NW3 30.02S ALMA PTCLDY 41 29 62 NW7 30.02R WAYCROSS PTCLDY 38 30 74 NW6 30.02S WCI 33 JESUP FAIR 43 28 56 NW9 30.01 BAXLEY FAIR 37 27 65 NW9 30.02S WCI 31 BRUNSWICK CLEAR 37 32 81 W6 30.01R WCI 33 SAINT SIMONS PTCLDY 43 32 65 NW8 29.99R $$ SCZ027-028-034-036>038-045-046-048>050-GAZ119-141-131000- ...LAKE AND SUPPLEMENTAL COASTAL OBSERVATIONS... STATION/POSITION TIME TEMP WIND PRES WAVE SWELL AIR SEA DIR/SP/G HT/PER HT/PER/DIR (UTC) (F) (DEG/KT/KT) (MB) (FT/S) (FT/S/D) WINYAH BAY 0845 36 300/ 3 1013.0S LAKE MURRAY 0850 35 CALM / 6 1013.5R ACE BASIN NERRS 0845 39 300/ 2 1014.0S FORT PULASKI 0900 42 54 310/ 16/ 20 1015.3 SAPELO ISLAND NOT AVBL $$ ANZ835-935-AMZ111-154-330-350-352-354-370-450-454-472-131000- ...C-MAN AND BUOY OBSERVATIONS... STATION/POSITION TIME TEMP WIND PRES WAVE SWELL AIR SEA DIR/SP/G HT/PER HT/PER/DIR (UTC) (F) (DEG/KT/KT) (MB) (FT/S) (FT/S/D) BUOY 41004 0910 48 74 330/ 19/ 25 1012.6 BUOY 41008 0850 48 60 310/ 23/ 29 1014.1R 5/ 5 FOLLY BEACH CMAN 0900 39 300/ 5/ 10 1014.3R CAPERS NEARSHORE 0908 40 56 320/ 16/ 21 1013.4R FRIPP NEARSHORE 0908 41 57 290/ 19/ 31 1014.0F STATION/POSITION TIME TEMP WIND PRES WAVE SWELL AIR SEA DIR/SP/G HT/PER HT/PER/DIR (UTC) (F) (DEG/KT/KT) (MB) (FT/S) (FT/S/D) 5E ST. MARYS GA 0900 62 N/A 3/ 4 FRYING PAN BUOY 0910 42 63 330/ 21/ 29 1011.7 BUOY 41025 0910 38 73 310/ 31/ 41 1009.4 CAPE LOOKOUT NC 0900 340/ 20/ 23 1011.5R BUOY 41002 0850 64 75 290/ 27/ 35 1006.3R 15/11 8/280/11 BUOY 41010 NOT AVBL ST AUGUSTINE FL 0900 47 60 280/ 5/ 7 1016.8R $$

USA.gov is the U.S. government's official web portal to all federal, state and local government web resources and services.